Temp
63 63 63 63 63 63 63 63 63 63 63 63 64 64 63 63 64 69 72 76 76 71 71 79 79 77 77 72 72 71 69 65 66 63 69 70 70 71 71 72 71 73 73 73 77
63 63 63 63 63 63 63 63 63 63 63 63 63 63 64 63 70 71 73 72 72 71 78 78 75 76 75 71 71 73 67 67 70 71 70 70 71 73 70 70 70 71 73 70 72
62 62 63 63 62 62 63 63 62 62 63 63 63 63 63 65 71 73 71 72 72 73 78 78 78 76 71 71 69 67 68 68 68 69 70 70 68 73 71 67 76 75 77 71 71
62 62 62 62 62 62 62 62 62 62 62 62 63 63 63 70 64 72 70 71 71 77 78 75 75 71 69 67 68 66 66 67 67 67 66 66 70 68 71 77 75 79 77 74 71
61 61 61 61 62 62 62 62 62 62 62 62 63 63 68 70 71 73 68 71 75 75 76 74 73 70 67 68 67 66 66 66 66 65 67 66 67 69 70 76 73 71 69 73 73
60 60 60 60 61 61 62 62 62 62 62 63 63 63 71 65 71 74 73 72 75 75 73 75 73 73 68 65 66 65 65 65 65 66 66 64 66 65 72 72 72 68 72 73 73
60 60 60 60 60 61 61 62 62 62 62 63 64 67 68 70 72 74 73 72 73 75 72 72 74 72 69 63 65 64 62 65 66 64 65 64 62 62 75 67 69 70 71 70 71
60 59 59 60 60 61 61 61 62 62 62 63 63 68 66 69 74 72 74 72 74 74 72 72 74 68 67 65 64 61 62 60 63 61 61 63 62 69 68 66 69 72 72 69 70
59 59 59 60 60 60 61 61 61 62 63 63 66 66 64 68 67 70 73 71 71 71 71 71 70 64 65 63 60 58 59 56 60 61 60 61 63 68 64 64 67 71 72 71 70
59 59 59 60 60 60 60 61 62 63 64 66 66 62 64 62 65 67 70 70 68 68 69 67 65 63 62 62 55 56 55 53 57 59 57 59 60 68 70 64 68 71 72 71 70
59 59 60 60 60 61 61 62 60 59 60 62 61 61 60 64 66 64 68 68 68 66 61 58 60 56 63 65 60 58 56 58 59 59 56 59 60 65 70 67 67 70 73 71 72
58 59 59 60 60 61 62 57 61 61 56 60 59 59 62 64 58 61 67 64 61 57 56 56 53 62 57 57 56 55 55 55 56 56 53 57 56 62 66 66 69 70 73 74 75
56 57 58 58 59 59 61 62 64 63 56 56 57 58 60 63 60 59 65 60 57 52 54 56 57 55 55 52 51 53 52 53 53 55 56 52 56 60 63 62 66 69 71 73 74
55 55 56 59 56 58 57 65 65 64 50 50 52 57 58 61 56 61 66 62 54 54 53 55 57 53 51 51 54 50 56 55 52 50 50 52 49 61 63 64 63 67 69 71 70
55 55 55 58 54 54 61 63 63 60 34 52 50 62 57 58 55 54 62 60 53 52 54 53 49 49 49 52 54 52 52 51 50 50 47 51 47 60 56 58 63 69 70 67 67
56 56 55 56 55 56 58 59 58 42 32 44 51 50 51 52 51 54 56 60 59 52 51 51 53 54 56 50 53 50 50 48 47 48 41 52 50 55 63 61 67 65 64 60 60
55 55 55 54 51 57 56 52 38 32 49 44 45 48 48 47 47 50 49 49 49 44 45 47 49 52 52 49 50 51 51 43 39 37 40 47 45 55 62 64 64 67 66 62 58
55 54 54 55 56 56 52 41 31 38 46 49 47 47 45 47 46 47 46 45 50 50 46 44 43 47 53 56 51 48 52 44 34 37 45 41 39 53 62 67 64 65 62 60 58
53 51 51 53 55 56 45 33 34 40 46 43 45 41 40 44 46 46 45 46 50 51 46 43 44 49 49 51 56 47 43 54 45 33 36 48 55 61 57 59 62 59 56 58 60
49 48 48 54 54 52 40 35 39 46 48 48 40 44 38 41 42 40 40 47 46 51 57 47 40 45 48 53 51 52 55 42 44 32 32 45 47 50 55 57 61 62 58 58 57
47 43 51 54 54 46 36 39 42 49 49 46 42 41 44 41 42 40 44 47 49 47 50 45 40 39 46 45 47 45 45 46 47 44 38 37 47 62 62 63 64 64 60 60 58
43 38 50 53 42 43 37 41 45 47 50 48 49 45 43 44 41 41 40 45 53 51 44 49 37 34 42 45 48 45 47 48 39 36 41 40 44 55 56 56 55 58 56 57 58
39 40 49 48 36 36 40 40 44 43 45 46 45 48 50 44 39 41 42 48 51 48 43 45 35 33 35 39 43 42 46 48 48 39 34 34 43 52 53 56 56 55 56 52 52
39 34 40 41 45 41 39 39 38 44 44 46 45 47 45 43 47 42 42 45 48 45 44 44 36 34 36 39 42 36 41 44 44 33 37 38 45 55 58 57 59 57 55 54 51
39 35 38 33 36 40 42 40 37 37 43 45 41 43 42 37 40 39 43 43 45 46 45 42 32 34 36 38 37 36 38 41 40 42 36 44 45 51 57 59 62 61 56 52 51
35 35 37 34 38 39 39 35 37 40 41 39 39 39 40 38 40 34 38 40 40 44 44 43 33 34 32 39 37 34 39 41 42 44 44 46 45 56 59 61 60 61 59 52 52
42 41 39 34 32 34 36 36 38 41 38 42 41 38 36 38 42 41 40 39 38 36 37 36 34 32 30 35 33 30 36 38 40 44 44 39 47 55 55 55 56 58 58 58 58
MSLP
1018.19 1018.29 1018.23 1018.31 1018.57 1018.45 1018.26 1018.19 1018.22 1018.25 1018.23 1018.16 1017.98 1017.90 1017.82 1017.63 1017.46 1017.29 1016.56 1016.15 1015.99 1016.25 1016.20 1016.07 1015.97 1015.91 1016.10 1016.15 1016.40 1016.27 1015.23 1014.76 1014.86 1015.32 1015.03 1015.93 1015.94 1016.46 1016.83 1016.76 1017.20 1017.29 1017.30 1017.91 1018.09
1018.04 1018.18 1018.15 1018.13 1018.35 1018.42 1018.34 1018.29 1018.25 1018.21 1018.28 1018.25 1017.98 1017.75 1017.61 1017.50 1017.12 1016.55 1016.23 1016.10 1016.20 1016.30 1016.12 1015.76 1015.59 1015.73 1015.79 1016.11 1016.32 1015.75 1015.36 1015.06 1015.41 1015.44 1015.48 1015.90 1016.04 1016.05 1016.55 1016.58 1016.73 1017.04 1017.58 1018.30 1018.60
1017.80 1017.98 1018.09 1017.99 1018.08 1018.23 1018.32 1018.36 1018.37 1018.29 1018.27 1018.20 1017.97 1017.67 1017.46 1017.30 1016.84 1016.03 1016.08 1016.16 1016.22 1016.19 1016.04 1015.80 1015.60 1015.56 1015.70 1016.02 1016.22 1016.09 1015.51 1015.74 1015.88 1016.18 1016.29 1016.25 1016.40 1016.35 1015.99 1015.98 1015.52 1015.64 1016.33 1017.66 1018.21
1017.81 1017.85 1018.14 1018.07 1018.09 1018.23 1018.24 1018.24 1018.39 1018.32 1018.25 1018.09 1017.86 1017.61 1017.30 1017.02 1016.64 1016.05 1016.05 1016.13 1016.28 1016.17 1015.97 1015.80 1015.64 1015.54 1015.69 1015.87 1016.27 1016.12 1016.20 1016.24 1016.39 1016.69 1016.75 1016.63 1016.58 1016.26 1015.86 1015.14 1015.64 1015.79 1016.25 1017.09 1017.60
1017.79 1017.69 1018.08 1018.12 1018.05 1018.12 1018.24 1018.16 1018.24 1018.28 1018.15 1018.02 1017.80 1017.44 1017.23 1016.66 1015.97 1016.00 1016.12 1016.25 1016.34 1016.19 1015.85 1015.64 1015.47 1015.63 1015.61 1015.96 1016.46 1016.35 1016.49 1016.77 1016.90 1017.06 1017.01 1017.03 1016.69 1016.25 1015.44 1015.50 1015.98 1016.36 1016.71 1016.69 1016.92
1017.81 1017.74 1017.96 1018.07 1018.11 1018.03 1018.16 1018.21 1018.22 1018.14 1018.04 1017.93 1017.74 1017.42 1017.02 1016.61 1016.13 1016.04 1016.10 1016.22 1016.21 1016.06 1015.96 1015.81 1015.55 1015.88 1016.13 1016.45 1016.71 1016.87 1016.88 1016.96 1017.16 1017.15 1017.18 1017.02 1016.78 1016.80 1015.11 1015.45 1015.72 1016.23 1016.17 1016.36 1016.64
1017.47 1017.62 1017.79 1017.85 1018.13 1017.97 1018.08 1018.18 1018.16 1018.12 1017.94 1017.81 1017.63 1017.39 1016.85 1016.34 1016.26 1016.25 1016.18 1016.18 1016.24 1016.05 1015.96 1016.16 1016.13 1016.05 1016.52 1016.97 1017.45 1017.26 1016.97 1016.84 1016.97 1017.35 1017.30 1017.18 1016.60 1015.54 1014.89 1015.71 1015.53 1015.65 1015.88 1016.15 1016.43
1016.97 1017.32 1017.57 1017.63 1017.83 1017.91 1017.92 1018.08 1018.08 1018.03 1017.86 1017.72 1017.54 1017.28 1016.61 1016.52 1016.34 1016.34 1016.29 1016.31 1016.38 1016.28 1016.34 1016.57 1016.45 1016.67 1017.03 1017.59 1017.52 1017.19 1017.06 1016.58 1016.84 1017.41 1017.58 1017.30 1015.14 1014.61 1015.11 1015.31 1014.85 1014.89 1015.13 1015.53 1015.82
1016.86 1016.90 1017.23 1017.46 1017.53 1017.67 1017.64 1017.92 1017.97 1017.93 1017.81 1017.56 1017.45 1017.10 1016.64 1016.65 1016.56 1016.52 1016.40 1016.28 1016.47 1016.65 1016.80 1016.84 1016.83 1017.30 1017.51 1017.04 1017.06 1017.14 1016.29 1016.68 1016.77 1017.30 1017.30 1017.02 1014.93 1014.74 1015.16 1015.18 1014.58 1014.34 1014.36 1014.63 1015.04
1016.15 1016.51 1016.96 1016.98 1017.32 1017.33 1017.64 1017.77 1017.83 1017.85 1017.70 1017.52 1017.39 1017.52 1016.84 1016.66 1016.69 1016.67 1016.64 1016.57 1016.59 1016.81 1016.84 1016.94 1017.19 1017.22 1017.21 1016.81 1015.90 1016.12 1016.47 1016.82 1016.75 1017.17 1017.34 1016.72 1015.01 1014.46 1014.49 1014.74 1014.07 1013.79 1013.60 1013.77 1014.01
1015.91 1016.27 1016.50 1016.87 1016.91 1017.16 1017.59 1017.83 1018.12 1018.03 1017.54 1016.71 1016.49 1016.38 1016.47 1016.90 1017.01 1016.88 1016.79 1016.67 1016.75 1016.87 1016.84 1017.51 1017.11 1016.56 1016.15 1016.07 1016.66 1016.61 1016.70 1016.50 1016.84 1017.19 1017.25 1016.27 1015.19 1013.88 1013.61 1013.86 1013.27 1012.67 1012.35 1012.60 1012.64
1015.99 1016.27 1016.19 1016.64 1016.79 1017.18 1017.32 1017.29 1016.75 1016.86 1016.85 1016.58 1016.75 1016.66 1016.54 1016.52 1016.87 1016.99 1016.96 1016.72 1016.79 1016.88 1017.50 1017.94 1017.04 1016.76 1017.31 1017.33 1017.37 1017.34 1017.17 1017.06 1017.18 1017.33 1017.41 1016.03 1014.84 1013.61 1013.01 1012.66 1011.96 1011.51 1011.22 1011.20 1011.39
1016.06 1016.30 1016.30 1016.33 1016.70 1017.02 1016.82 1016.58 1016.41 1016.73 1016.77 1016.58 1016.45 1016.38 1016.41 1016.61 1016.35 1016.55 1016.84 1016.87 1016.93 1017.24 1017.28 1017.01 1017.19 1017.29 1017.66 1017.99 1017.97 1017.73 1017.52 1017.51 1017.56 1017.41 1016.91 1016.23 1013.00 1012.16 1011.78 1011.61 1011.21 1010.96 1010.41 1010.46 1010.76
1016.20 1016.07 1016.30 1016.05 1016.80 1016.64 1016.56 1016.13 1016.30 1016.76 1016.72 1016.18 1016.25 1015.83 1016.22 1016.32 1016.60 1016.50 1016.53 1016.66 1017.33 1017.09 1017.60 1017.54 1017.49 1017.70 1017.97 1017.97 1018.21 1017.88 1017.52 1017.78 1017.94 1018.04 1016.79 1016.52 1012.11 1011.48 1011.09 1010.54 1010.36 1009.82 1009.77 1010.00 1010.67
1016.30 1016.19 1016.09 1015.93 1016.17 1016.96 1015.73 1015.90 1016.39 1016.71 1016.40 1015.53 1016.14 1016.09 1016.11 1016.13 1016.43 1016.96 1016.98 1016.66 1016.74 1017.07 1017.63 1017.06 1017.47 1017.80 1017.91 1017.76 1018.18 1018.11 1018.14 1018.16 1018.19 1017.93 1017.45 1015.94 1015.06 1010.54 1010.67 1010.15 1009.51 1008.69 1009.31 1010.12 1010.86
1016.42 1016.17 1016.19 1016.24 1016.83 1016.50 1015.74 1015.98 1016.61 1017.08 1015.49 1015.74 1015.90 1015.88 1016.28 1016.45 1016.66 1017.14 1017.10 1016.96 1017.05 1017.14 1017.45 1017.59 1017.85 1017.79 1017.58 1018.15 1018.29 1018.65 1018.59 1018.77 1018.71 1018.11 1016.68 1014.83 1014.48 1006.85 1009.05 1009.08 1008.34 1008.91 1009.49 1010.59 1011.45
1016.51 1016.42 1016.36 1016.43 1016.53 1016.27 1016.35 1016.53 1016.12 1015.47 1015.08 1015.38 1015.59 1015.98 1016.20 1016.45 1016.78 1016.90 1016.99 1016.97 1016.60 1017.15 1016.89 1017.60 1017.58 1017.70 1017.81 1018.19 1018.75 1018.41 1018.07 1018.15 1018.05 1017.58 1015.18 1014.67 1013.91 1008.31 1009.43 1008.89 1008.78 1008.91 1009.60 1010.66 1011.77
1016.49 1016.57 1016.30 1016.41 1016.32 1016.28 1017.00 1016.84 1016.20 1014.89 1014.31 1015.04 1015.36 1015.84 1016.10 1016.42 1016.87 1017.03 1017.02 1016.92 1016.84 1016.35 1016.50 1016.69 1016.97 1017.20 1017.00 1016.66 1017.08 1017.70 1017.05 1016.72 1016.21 1016.14 1014.91 1014.97 1011.73 1008.79 1008.90 1008.72 1008.88 1009.09 1009.94 1010.85 1011.67
1016.64 1016.78 1016.73 1016.49 1016.40 1016.56 1017.82 1017.36 1015.98 1015.27 1014.62 1014.80 1015.59 1015.70 1016.26 1016.62 1016.68 1016.92 1016.92 1016.62 1016.25 1016.40 1016.20 1016.39 1016.62 1016.89 1016.80 1016.78 1016.80 1017.47 1017.24 1016.31 1016.50 1016.96 1016.06 1012.64 1009.46 1008.70 1009.13 1008.88 1008.76 1009.31 1010.02 1010.43 1011.28
1016.89 1016.84 1016.80 1016.51 1016.58 1016.74 1017.40 1016.84 1016.29 1015.41 1014.78 1014.68 1014.84 1015.12 1015.60 1016.29 1016.64 1017.01 1017.03 1016.50 1016.29 1016.30 1016.04 1016.79 1017.15 1017.38 1017.26 1017.22 1017.17 1016.75 1016.38 1016.86 1016.77 1015.88 1014.49 1010.90 1009.72 1008.10 1008.62 1008.44 1008.29 1008.52 1009.25 1010.30 1011.34
1017.06 1017.03 1016.72 1016.41 1016.55 1016.62 1016.42 1015.93 1015.52 1015.19 1014.87 1014.72 1014.80 1015.13 1015.28 1015.84 1016.38 1016.90 1016.80 1016.69 1016.55 1016.35 1016.81 1017.62 1018.30 1018.33 1017.85 1017.22 1016.57 1017.02 1016.47 1016.32 1016.04 1015.27 1014.01 1011.69 1008.05 1007.28 1007.54 1007.77 1008.05 1008.20 1008.94 1009.70 1010.83
1017.10 1016.84 1016.34 1016.33 1016.54 1016.07 1015.85 1015.71 1015.38 1015.04 1014.91 1015.00 1014.81 1015.13 1015.49 1015.94 1016.45 1016.71 1016.79 1016.64 1016.59 1016.74 1017.12 1017.49 1018.54 1018.50 1017.78 1017.57 1017.31 1016.75 1016.30 1016.04 1015.70 1015.33 1014.73 1013.40 1008.01 1008.06 1008.46 1008.73 1008.89 1009.02 1009.60 1010.09 1010.93
1016.96 1016.92 1016.49 1016.30 1015.84 1015.71 1015.92 1015.71 1015.39 1015.16 1014.97 1015.03 1015.07 1015.03 1015.27 1015.74 1016.45 1016.63 1016.69 1016.59 1016.91 1017.17 1017.68 1018.13 1018.65 1018.73 1018.32 1018.31 1017.81 1017.10 1016.34 1016.25 1015.96 1016.04 1014.66 1013.87 1007.98 1008.71 1009.15 1009.24 1009.41 1009.66 1010.06 1010.73 1011.47
1017.06 1016.97 1016.88 1016.55 1015.90 1015.50 1015.71 1015.83 1015.74 1015.56 1015.49 1015.35 1015.37 1015.38 1015.67 1015.85 1016.13 1016.44 1016.95 1017.26 1017.35 1017.89 1018.25 1018.49 1018.78 1018.29 1017.77 1017.65 1017.39 1017.36 1016.62 1016.42 1016.29 1015.97 1014.25 1012.80 1009.07 1008.69 1009.08 1009.32 1009.27 1009.86 1010.61 1011.13 1011.68
1016.78 1016.40 1016.37 1016.08 1015.81 1015.77 1015.62 1015.72 1015.82 1015.85 1015.92 1015.93 1015.97 1016.01 1016.08 1016.67 1017.01 1017.13 1017.58 1017.78 1017.99 1018.28 1018.77 1019.07 1019.14 1018.91 1018.21 1018.28 1018.12 1017.74 1016.98 1016.33 1015.95 1014.51 1014.50 1010.88 1011.29 1006.79 1009.13 1009.33 1009.15 1009.62 1010.23 1010.97 1011.42
1016.56 1016.57 1016.75 1016.40 1015.79 1015.78 1015.72 1015.55 1015.53 1015.86 1016.02 1016.20 1016.53 1016.93 1016.92 1017.18 1017.69 1018.29 1018.81 1018.70 1018.78 1018.81 1018.86 1019.07 1018.90 1019.04 1018.29 1018.02 1017.68 1017.07 1016.11 1015.81 1015.41 1014.52 1013.76 1012.02 1011.10 1007.29 1009.18 1009.29 1009.08 1009.16 1009.44 1010.10 1010.42
1016.08 1016.40 1016.20 1016.50 1016.41 1016.17 1015.30 1015.72 1015.60 1015.95 1016.79 1016.85 1016.96 1017.58 1017.94 1018.03 1018.55 1019.34 1019.70 1019.80 1020.02 1020.15 1020.00 1019.91 1019.40 1019.34 1018.19 1017.93 1017.53 1016.25 1013.64 1014.50 1014.50 1013.97 1013.50 1012.42 1009.95 1008.57 1008.71 1009.03 1009.04 1009.27 1009.22 1009.39 1009.45
Wind_Speed
7 6 5 4 2 2 3 4 4 4 4 6 6 6 8 8 1 3 4 1 3 5 3 5 3 4 2 4 2 1 4 6 5 7 3 7 9 4 1 4 4 6 3 4 10
8 7 6 6 3 2 2 3 3 4 4 6 7 7 7 7 2 5 1 1 2 4 6 9 7 6 3 3 2 4 4 6 1 3 3 7 7 7 6 7 7 6 7 4 11
8 6 6 6 5 3 1 2 3 4 5 7 9 8 7 2 3 2 0 2 3 4 2 2 6 3 3 2 3 3 4 2 3 3 2 4 5 4 7 8 12 13 12 12 15
8 7 6 5 5 3 3 1 2 4 6 7 9 10 7 3 4 2 0 2 2 3 5 6 5 5 4 5 3 4 2 3 2 3 4 4 3 5 11 10 3 9 2 14 17
9 8 7 5 5 4 3 2 1 3 5 8 10 10 3 4 2 2 3 2 3 3 5 5 6 4 5 4 4 3 3 2 1 2 2 2 5 7 11 14 6 3 6 12 15
9 9 8 7 6 5 4 3 3 3 4 7 9 11 3 6 2 1 3 4 2 3 4 3 4 3 6 3 3 2 1 1 2 2 2 4 2 2 3 4 11 9 11 10 14
10 9 9 8 7 6 5 4 4 4 5 6 7 4 2 2 1 1 1 2 1 1 4 2 5 1 5 5 1 1 3 3 6 2 3 3 7 14 13 4 8 12 11 10 12
10 10 9 9 7 6 4 4 4 5 6 5 5 1 4 1 1 3 3 3 3 4 4 3 5 8 3 6 2 1 2 3 4 4 1 6 10 6 1 6 15 15 12 12 14
12 11 10 8 7 6 3 5 6 6 5 3 1 1 3 1 3 1 0 5 5 4 6 4 4 4 4 4 3 1 5 5 3 3 2 7 9 2 1 5 12 11 12 12 13
11 10 10 10 8 5 3 3 3 2 1 1 2 2 3 3 2 2 2 4 4 5 5 3 4 4 4 7 10 6 5 4 6 3 4 7 19 15 12 9 14 14 13 12 15
10 12 10 9 9 6 3 2 3 3 3 4 3 1 3 2 1 1 1 5 3 3 7 2 7 11 17 15 1 4 2 7 4 1 5 14 18 22 19 13 18 19 19 17 19
7 9 10 8 8 7 4 3 2 2 3 6 1 2 1 3 3 2 3 7 5 8 6 4 11 14 3 6 4 4 9 10 10 5 5 12 18 23 21 19 20 21 21 21 19
9 7 5 6 4 5 6 5 4 1 1 3 5 5 4 6 5 11 10 4 4 8 13 13 3 4 9 6 8 8 12 9 9 6 7 9 19 14 10 15 22 22 24 22 20
8 8 6 6 7 4 5 7 5 2 4 5 7 5 5 6 5 1 8 4 3 12 7 8 5 6 7 7 12 13 11 10 8 4 8 2 15 14 9 12 10 17 16 16 12
6 7 5 4 4 3 4 8 5 1 6 7 4 3 3 6 8 1 1 2 9 8 7 4 10 10 9 7 10 1 5 7 5 7 4 8 10 4 3 7 18 20 10 8 6
6 7 2 4 3 5 2 6 3 5 10 5 5 6 8 1 2 3 4 3 2 6 2 1 1 4 2 3 3 10 6 4 2 3 9 8 9 21 8 13 16 5 6 3 3
5 6 2 1 2 3 2 3 5 9 2 7 5 7 4 6 4 4 9 11 9 8 12 5 7 3 3 6 3 5 8 4 5 6 10 3 10 21 12 11 11 11 7 8 3
4 5 2 1 2 2 3 3 4 4 13 5 5 9 7 6 2 4 8 9 8 3 4 9 9 13 11 17 9 14 11 8 7 6 7 4 13 7 13 9 11 12 5 5 6
3 1 1 1 3 3 5 1 2 3 6 7 5 5 4 3 3 5 6 5 7 11 10 7 6 1 2 1 9 7 11 7 8 3 5 12 21 15 12 13 13 14 11 13 9
1 1 2 1 4 5 3 5 4 3 1 7 5 6 6 7 6 4 5 3 5 12 13 3 6 2 2 3 1 8 9 5 5 6 9 13 15 14 5 12 19 19 17 12 9
1 2 2 1 3 4 5 6 6 5 3 4 4 6 4 5 6 6 5 3 5 7 7 5 2 2 2 10 13 6 9 4 3 6 5 11 15 1 8 12 14 13 9 13 11
2 3 1 4 5 3 5 6 4 4 4 1 6 6 4 5 5 8 6 2 4 7 11 11 3 4 9 2 2 3 6 14 6 7 7 6 22 6 2 6 6 5 5 5 7
3 0 1 2 7 7 2 2 1 3 4 5 6 4 8 11 7 8 9 2 6 3 4 8 4 3 4 2 2 8 11 10 14 4 12 6 18 5 3 5 5 7 3 1 4
2 4 1 2 1 9 10 8 6 1 1 2 3 3 4 4 5 3 6 2 3 6 8 7 2 3 8 5 3 5 12 13 15 5 9 18 30 23 13 8 10 6 5 5 4
2 3 1 8 10 6 11 9 15 7 3 5 3 5 5 4 2 4 2 1 4 8 7 7 6 5 7 11 6 5 7 12 19 23 13 24 23 33 21 18 20 9 6 7 8
5 4 2 1 4 15 10 9 12 11 7 4 5 6 5 7 5 1 3 1 2 2 4 8 3 3 12 13 14 15 21 19 17 21 20 27 26 32 21 15 15 17 14 12 12
3 1 2 3 4 8 11 8 11 9 4 2 9 6 3 5 4 5 3 0 1 1 2 2 2 2 11 5 2 9 16 16 15 21 19 20 30 30 25 18 19 19 16 15 16
Wind_Direction
171 166 148 133 126 101 88 80 67 39 8 347 343 337 329 333 312 172 226 59 159 151 146 138 139 111 131 98 78 231 205 224 217 184 179 151 193 157 41 180 203 196 253 85 144
170 170 159 142 127 75 55 44 33 19 354 337 331 328 326 328 221 228 69 151 161 163 171 178 162 149 119 106 114 216 220 217 266 193 178 171 210 184 191 190 217 219 205 161 168
172 175 175 158 150 143 72 16 4 358 343 332 321 318 320 251 226 176 38 200 177 180 196 171 130 140 139 164 156 162 238 168 190 202 203 176 212 214 223 213 225 220 200 181 182
184 175 195 181 174 177 169 144 335 341 335 326 319 319 317 217 223 121 202 174 181 160 152 144 152 152 164 182 154 208 192 193 126 168 164 186 146 223 232 234 318 231 191 179 191
191 175 196 200 193 195 218 220 270 323 331 325 320 323 241 206 220 123 146 152 175 179 184 163 169 152 180 154 152 218 158 201 308 205 229 147 219 261 251 239 226 237 208 204 204
202 189 195 203 203 203 220 245 270 299 322 325 327 318 230 231 52 132 147 128 153 172 137 171 170 138 105 113 230 85 175 258 261 240 248 251 222 238 241 288 227 223 227 222 214
195 200 199 197 215 202 217 248 273 295 309 317 336 326 233 254 1 96 149 98 87 174 130 81 120 123 131 131 109 85 252 267 210 209 225 220 236 233 250 242 254 233 234 231 224
195 194 206 197 203 218 226 250 274 295 302 308 332 276 264 352 120 138 143 92 76 54 83 78 103 96 34 123 90 178 235 242 124 176 115 224 261 257 219 258 255 245 234 229 224
193 188 194 201 202 214 232 285 296 293 290 302 201 253 251 145 160 89 331 139 102 69 66 82 62 75 152 185 198 207 245 215 294 198 148 222 284 249 212 252 268 255 243 234 233
181 186 200 189 196 205 243 282 317 278 85 166 99 220 153 191 130 134 63 108 111 124 109 71 85 161 156 202 233 196 210 213 250 151 215 225 261 266 250 255 264 266 258 244 239
176 194 191 202 191 186 141 147 185 198 236 224 184 113 134 99 212 95 169 116 111 114 179 70 205 201 214 219 240 114 213 251 240 202 240 245 261 271 275 262 262 260 254 247 241
157 142 144 200 201 182 145 214 252 49 214 218 225 292 211 177 125 188 185 172 170 181 135 164 228 219 79 165 183 220 255 257 279 264 233 273 261 267 264 250 251 254 258 254 252
78 76 106 109 212 168 203 206 147 230 251 216 193 192 192 174 196 180 180 146 158 158 193 217 170 168 187 183 199 232 240 238 264 318 235 289 273 239 262 255 253 253 255 259 257
71 52 46 102 125 164 202 180 159 193 231 201 206 212 146 164 216 36 182 152 170 208 180 237 172 174 176 215 208 247 212 228 251 257 276 335 289 280 242 252 238 250 245 255 251
83 54 33 360 65 265 170 159 159 177 254 109 142 121 142 188 130 167 199 135 177 170 179 186 173 188 204 212 185 254 140 176 176 217 305 203 267 234 141 247 254 257 267 238 247
34 36 27 89 157 297 95 107 158 152 229 160 137 156 156 122 81 113 159 55 91 141 200 47 24 208 193 95 173 141 103 83 89 184 253 228 226 280 244 234 259 263 245 193 172
11 358 35 102 143 12 348 78 156 186 154 175 163 172 168 152 123 158 171 184 176 182 219 164 212 171 170 124 93 208 167 216 227 200 254 114 217 254 295 253 246 271 226 189 179
351 347 357 272 115 128 6 89 228 162 202 99 127 132 180 149 147 146 154 194 223 199 134 202 229 180 180 213 189 201 209 210 247 230 280 130 240 257 236 275 254 249 263 237 230
16 16 284 227 171 113 89 284 204 236 145 128 136 145 156 151 145 162 200 207 212 195 209 196 242 203 172 77 184 172 216 250 268 113 278 252 263 256 230 252 254 246 229 232 227
107 57 237 349 174 145 138 198 237 254 183 158 176 180 164 159 156 166 177 182 213 199 225 35 266 35 92 182 62 222 146 165 216 224 236 255 269 255 260 239 246 244 235 224 213
65 180 133 221 175 182 207 202 198 209 226 196 126 154 154 147 151 174 193 189 246 170 160 134 235 108 134 206 194 174 204 211 251 234 264 284 259 57 248 248 261 263 262 220 197
144 192 34 178 163 217 182 175 182 203 141 136 180 174 197 152 167 183 207 269 219 146 165 185 128 207 222 121 22 3 257 218 206 207 230 276 269 122 336 320 298 302 321 237 203
161 144 7 253 197 200 117 146 141 152 201 164 196 214 184 183 204 184 191 179 177 106 132 160 197 200 200 192 220 227 210 231 242 33 225 202 258 56 45 314 317 279 303 318 207
147 156 179 269 216 194 175 184 181 258 262 165 133 130 152 183 228 184 213 153 109 115 93 60 282 266 261 46 76 196 231 226 211 219 246 231 270 267 271 329 326 320 298 306 235
182 217 323 191 206 194 188 181 191 183 216 176 172 197 158 171 205 220 212 180 168 166 144 163 219 209 255 274 265 245 253 235 223 229 218 255 248 262 264 268 267 294 249 259 252
163 179 133 9 205 199 185 203 188 188 168 188 169 120 124 209 234 191 57 49 283 72 175 181 259 219 267 254 245 249 245 246 248 252 248 259 262 271 276 278 263 252 251 252 235
160 124 170 146 142 190 198 164 189 150 68 93 148 139 172 171 181 148 148 99 270 20 321 284 193 193 270 137 356 275 245 221 232 238 237 248 254 273 276 263 258 262 257 254 262